KN7D Weather Reports


time (UTC)temp
C
wind
direction
speed
KPH
gust
KPH
rain 1hr
cm
rain 24hr
cm
rain mn
cm
humidity
%
barometer
mb
20260502161524 17 24 1.6 6.4 0.00 0.00 0.00 33 1019.2
20260502151514 14 49 1.6 6.4 0.00 0.00 0.00 41 1019.3
20260502123049 6 61 1.6 3.2 0.00 0.00 0.00 49 1018.6
20260502121551 6 25 1.6 3.2 0.00 0.00 0.00 49 1018.6
20260502114545 6 22 1.6 3.2 0.00 0.00 0.00 49 1018.5
20260502113039 6 88 1.6 4.8 0.00 0.00 0.00 49 1018.6
20260502111545 7 97 1.6 8.0 0.00 0.00 0.00 50 1018.6
20260502110037 7 73 1.6 6.4 0.00 0.00 0.00 50 1018.7
20260502104536 7 66 1.6 4.8 0.00 0.00 0.00 48 1018.6
20260502103043 7 61 4.8 8.0 0.00 0.00 0.00 48 1018.6
20260502101537 7 58 1.6 4.8 0.00 0.00 0.00 48 1018.5
20260502091530 7 63 3.2 6.4 0.00 0.00 0.00 49 1018.5
20260502071522 7 84 0.0 3.2 0.00 0.00 0.00 48 1018.5
20260502070021 8 68 1.6 4.8 0.00 0.00 0.00 48 1018.4
20260502064515 8 42 3.2 4.8 0.00 0.00 0.00 47 1018.5
20260502063016 9 212 0.0 1.6 0.00 0.00 0.00 49 1018.5
20260502061509 9 188 1.6 4.8 0.00 0.00 0.00 47 1018.6
20260502060007 9 57 3.2 4.8 0.00 0.00 0.00 48 1018.5
20260502054508 9 66 1.6 3.2 0.00 0.00 0.00 48 1018.4
20260502053006 9 63 1.6 4.8 0.00 0.00 0.00 48 1018.4
20260502051506 10 62 1.6 3.2 0.00 0.00 0.00 48 1018.4
20260502050008 10 65 1.6 4.8 0.00 0.00 0.00 48 1018.4
20260502044505 10 69 1.6 3.2 0.00 0.00 0.00 48 1018.4
20260502043003 10 59 1.6 3.2 0.00 0.00 0.00 46 1018.3
20260502041502 11 61 1.6 3.2 0.00 0.00 0.00 48 1018.2
20260502040002 11 78 0.0 3.2 0.00 0.00 0.00 48 1018.1
20260502034502 12 74 0.0 3.2 0.00 0.00 0.00 46 1017.9
20260502033001 12 71 1.6 3.2 0.00 0.00 0.00 47 1017.7
20260502031502 13 40 1.6 3.2 0.00 0.00 0.00 48 1017.5
20260502024600 15 327 0.0 1.6 0.00 0.00 0.00 41 1017.2
20260502023102 15 323 0.0 3.2 0.00 0.00 0.00 39 1017.2
20260502021559 16 299 1.6 4.8 0.00 0.00 0.00 38 1017.1
20260502020058 17 298 1.6 6.4 0.00 0.00 0.00 36 1017.0
20260502014559 17 243 1.6 9.7 0.00 0.00 0.00 35 1016.9
20260502013058 17 250 1.6 8.0 0.00 0.00 0.00 35 1016.8
20260502011602 17 257 4.8 11.3 0.00 0.00 0.00 35 1016.7
20260502010056 19 240 4.8 8.0 0.00 0.00 0.00 32 1016.6
20260502004608 20 277 3.2 8.0 0.00 0.00 0.00 26 1016.7
20260502003055 19 22 1.6 6.4 0.00 0.00 0.00 28 1016.7
20260502001553 19 271 4.8 9.7 0.00 0.00 0.00 27 1016.8
20260502000100 19 288 4.8 9.7 0.00 0.00 0.00 27 1016.7
20260501234552 18 307 4.8 11.3 0.00 0.00 0.00 29 1016.8
20260501233050 18 256 6.4 12.9 0.00 0.00 0.00 29 1016.8
20260501231552 18 267 4.8 11.3 0.00 0.00 0.00 30 1016.8
20260501230048 18 289 4.8 12.9 0.00 0.00 0.00 28 1016.9
20260501224548 18 266 4.8 14.5 0.00 0.00 0.00 28 1016.9
20260501223053 18 300 4.8 11.3 0.00 0.00 0.00 27 1017.1
20260501221545 18 282 4.8 9.7 0.00 0.00 0.00 29 1017.3
20260501220050 18 289 4.8 9.7 0.00 0.00 0.00 31 1017.4
20260501214541 17 265 6.4 14.5 0.00 0.00 0.00 31 1017.5
20260501213059 17 261 8.0 14.5 0.00 0.00 0.00 30 1017.7
20260501211540 17 261 4.8 11.3 0.00 0.00 0.00 29 1017.9
20260501210039 17 257 6.4 14.5 0.00 0.00 0.00 31 1017.9
20260501204542 17 251 4.8 12.9 0.00 0.00 0.00 31 1017.9
20260501203038 17 296 6.4 16.1 0.00 0.00 0.00 32 1018.0
20260501201538 17 253 6.4 14.5 0.00 0.00 0.00 31 1017.9
20260501200036 17 242 8.0 12.9 0.00 0.00 0.00 28 1017.9
20260501194541 17 340 4.8 9.7 0.00 0.00 0.00 28 1018.0
20260501193035 17 249 3.2 8.0 0.00 0.00 0.00 28 1018.2
20260501191534 17 328 3.2 9.7 0.00 0.00 0.00 25 1018.4
20260501190030 16 291 6.4 12.9 0.00 0.00 0.00 27 1018.5
20260501184531 16 216 4.8 9.7 0.00 0.00 0.00 29 1018.6
20260501183028 16 273 4.8 11.3 0.00 0.00 0.00 28 1018.8
20260501181528 16 280 1.6 8.0 0.00 0.00 0.00 31 1018.8
20260501180036 15 215 3.2 8.0 0.00 0.00 0.00 29 1018.9
20260501174527 16 223 1.6 6.4 0.00 0.00 0.00 30 1019.0
20260501173025 16 146 1.6 11.3 0.00 0.00 0.00 32 1019.2
20260501171525 16 103 4.8 16.1 0.00 0.00 0.00 27 1019.2
20260501170019 15 113 1.6 12.9 0.00 0.00 0.00 28 1019.2
20260501164533 14 252 1.6 12.9 0.00 0.00 0.00 33 1019.2
20260501163015 13 190 1.6 12.9 0.00 0.00 0.00 33 1019.1